Voltar ao catálogo

THORAD DELTA 1 DEB

AtivoLEO
NORAD 42598·DEBRIS·🇺🇸 United States

Lançado Nov 15, 1974 de Vandenberg Space Force Base

Loading…

Próximas Passagens (próximas 24 horas)

TLE

EnvelhecendoSource: Space-Track

Época: Sep 11, 2026, 21:57 UTC

1 42598U 74089FP  26254.91517203  .00000336  00000-0  26062-2 0  9993
2 42598 102.7878 290.9764 0182944  78.9630 283.1948 12.43092253580347

Acompanhe THORAD DELTA 1 DEB em tempo real com AllMySat

Download on the App Store